Regional Weather Roundup
Issued by NWS

Home | Current Version | Previous Version | Graphics & Text | Print | Product List | Glossary On
Versions: 1 2 3 4 5 6 7 8 9 10 11 12 13 14 15 16 17 18 19 20 21 22 23 24 25 26 27 28 29 30 31 32 33 34 35 36 37 38 39 40 41 42 43 44 45 46 47 48 49 50
011
ASUS44 KJAN 170310
RWRMS

MISSISSIPPI HOURLY WEATHER ROUNDUP
NATIONAL WEATHER SERVICE JACKSON MS
1000 PM CDT TUE SEP 16 2014

NOTE: "FAIR: INDICATES FEW OR NO CLOUDS BELOW 12,000 FEET WITH NO
SIGNIFICANT WEATHER AND/OR OBSTRUCTIONS TO VISIBILITY.

MSZ001>002-007>008-010>013-018>021-025>028-034>036-170400-
NORTHWEST MISSISSIPPI

CITY           SKY/WX    TMP DP  RH WIND       PRES   REMARKS
CLARKSDALE     FAIR      72  70  94 CALM      30.05F
CLEVELAND      FAIR      73  69  88 NE9       30.03S
GREENWOOD      PTCLDY    74  70  87 N7        30.03R
GREENVILLE     PTCLDY    76  68  76 NE9       30.03R
GRENADA        FAIR      72  68  88 CALM      30.05R
OLIVE BRANCH   CLEAR     66  66 100 CALM      30.08R
OXFORD         FAIR      68  64  88 CALM      30.07S
TUNICA         CLEAR     70  68  94 NE3       30.06S
$$

MSZ003>006-009-014>017-022>024-029>033-037>039-170400-
NORTHEAST MISSISSIPPI

CITY           SKY/WX    TMP DP  RH WIND       PRES   REMARKS
COLUMBUS AFB   CLEAR     76  70  82 N8        30.02R
CORINTH          N/A     66  63  88 N3        30.06R
GOLDN TRIANGLE CLEAR     75  66  73 N6        30.02S
STARKVILLE     FAIR      73  68  83 CALM      30.02R
TUPELO         PTCLDY    71  66  84 NE9       30.04R
$$

MSZ040-058-170400-
CENTRAL MISSISSIPPI

CITY           SKY/WX    TMP DP  RH WIND       PRES   REMARKS
JACKSON INTL   PTCLDY    75  70  84 CALM      30.02R
JACKSON HAWKNS MOCLDY    77  68  73 CALM      30.03R
MERIDIAN KEY   PTCLDY    73  69  87 CALM      30.02R
MERIDIAN NAS   PTCLDY    73  68  84 CALM      30.01S
RAYMOND        FAIR      75  70  83 CALM      30.02S
VICKSBURG      CLOUDY    73  70  90 CALM      30.01S
$$

MSZ059>079-170400-
SOUTH MISSISSIPPI

CITY           SKY/WX    TMP DP  RH WIND       PRES   REMARKS
BROOKHAVEN     FAIR      75  73  94 S7        30.07R
HATTIESBURG    RAIN      72  70  93 W5        30.05S FOG
MCCOMB         LGT RAIN  73  71  93 W3        30.05S
NATCHEZ        CLOUDY    75  72  88 SW6       30.05R
PINE BELT      MOCLDY   N/A N/A N/A S5        30.05F
$$

MSZ080>082-170400-
COASTAL MISSISSIPPI

CITY           SKY/WX    TMP DP  RH WIND       PRES   REMARKS
BILOXI         CLOUDY    75  73  95 NE6       30.03R
PASCAGOULA     LGT RAIN  74  72  93 N10       30.03R
GULFPORT       CLOUDY    74  72  93 NW9       30.02R
$$



USA.gov is the U.S. government's official web portal to all federal, state and local government web resources and services.